Location: Taupo
(38.6830°S, 176.0830°E)
Time: 13:35:07
(UTC+13:00)

BREEZE-M DEB (TANK) - Visible Passes

Search period start: 16 October 2019 00:00
Search period end: 26 October 2019 00:00
Orbit: 300 x 13967 km, 46.1° (Epoch: 14 October)

Date Brightness Start Highest point End Pass type
(mag) Time Alt. Az. Time Alt. Az. Time Alt. Az.
16 Oct 8.7 19:45:18 10° WSW 20:53:53 50° WNW 22:29:07 10° NNW visible
17 Oct 8.7 17:14:31 10° WSW 18:11:01 82° NW 20:08:14 10° NNE visible
17 Oct 9.2 22:14:45 10° WSW 23:00:23 19° W 23:59:20 10° WNW visible
18 Oct 8.7 19:29:40 10° WSW 20:36:30 50° WNW 22:13:29 10° NNW visible
19 Oct 9.3 21:58:00 10° WSW 22:43:50 19° W 23:44:26 10° WNW visible
20 Oct 8.8 19:14:04 10° WSW 20:19:07 51° WNW 21:57:47 10° N visible
21 Oct 9.3 21:41:20 10° WSW 22:27:18 20° W 23:29:27 10° WNW visible
22 Oct 8.8 18:58:29 10° WSW 20:01:45 51° WNW 21:42:02 10° N visible
23 Oct 9.3 21:24:46 10° WSW 22:10:46 20° W 23:14:23 10° WNW visible
24 Oct 8.8 18:42:56 10° WSW 19:44:23 52° WNW 21:26:13 10° N visible
25 Oct 9.4 21:08:17 10° WSW 21:54:13 21° W 22:59:14 10° WNW visible
